Last 24 Hours

OV-Siberia 8700'

Hourly Data | America/Los_Angeles
as of 8/31/26 2:17 PM PDT
Date & Time Temp (°F) RH (%) Dew Pt (°F) Wet Bulb (°F) Wind Dir (°) Wind Spd (mph) Wind Gust (mph) WindChill (°F) Daily Min Temp (°F) Daily Max Temp (°F)
8/31/26 - 1400 58.6 38 33.0 45.2 N | 0 0.2 1.3 58.7 49.5 60.4
8/31/26 - 1300 59.0 41 35.2 46.2 N | 0 0.1 1.3 57.8 49.5 59.5
8/31/26 - 1200 57.3 39 32.6 44.5 N | 0 0.2 1.4 56.0 49.5 57.8
8/31/26 - 1100 55.3 39 30.6 42.9 N | 0 0.1 1.3 54.7 49.5 56.5
8/31/26 - 1000 52.9 41 30.1 41.6 N | 0 0.2 1.4 52.2 49.5 54.8
8/31/26 - 0900 51.1 42 28.6 40.2 N | 0 0.2 1.4 50.5 49.5 54.8
8/31/26 - 0800 50.1 41 27.6 39.4 N | 0 0.2 1.3 50.1 49.5 54.8
8/31/26 - 0700 49.9 42 27.6 39.3 N | 0 0.2 1.3 50.2 49.7 54.8
8/31/26 - 0600 50.7 40 27.3 39.6 N | 0 0.2 1.4 51.0 50.4 54.8
8/31/26 - 0500 51.7 41 28.9 40.6 N | 0 0.2 1.4 52.2 51.7 54.8
8/31/26 - 0400 52.1 43 30.4 41.4 N | 0 0.2 1.4 52.8 51.9 54.8
8/31/26 - 0300 53.7 30 23.4 39.8 N | 0 0.1 1.3 53.7 53.2 54.8
8/31/26 - 0200 53.8 29 22.2 39.5 N | 0 0.2 1.4 54.0 53.2 54.8
8/31/26 - 0100 54.5 29 23.2 40.1 N | 0 0.2 1.2 53.7 53.2 54.8
8/31/26 - 0000 53.3 37 27.6 40.9 N | 0 0.2 1.3 53.4 45.7 62.8
8/30/26 - 2300 53.2 42 30.7 42.0 N | 0 0.2 1.3 53.5 45.7 62.8
8/30/26 - 2200 53.7 45 32.7 43.0 N | 0 0.2 1.3 53.5 45.7 62.8
8/30/26 - 2100 52.8 52 35.8 43.8 N | 0 0.1 1.3 52.3 45.7 62.8
8/30/26 - 2000 52.2 58 37.8 44.4 N | 0 0.2 1.3 54.2 45.7 62.8
8/30/26 - 1900 56.5 49 37.7 46.2 N | 0 0.2 1.2 57.9 45.7 62.8
8/30/26 - 1800 59.2 46 38.7 47.8 N | 0 0.2 1.3 59.4 45.7 62.8
8/30/26 - 1700 59.8 43 37.1 47.3 N | 0 0.2 1.3 59.9 45.7 62.8
8/30/26 - 1600 60.4 43 37.6 47.8 N | 0 0.2 1.3 60.7 45.7 62.8
8/30/26 - 1500 59.9 42 37.0 47.4 N | 0 0.2 1.3 60.0 45.7 61.9
8/30/26 - 1400 59.3 35 31.5 44.9 N | 0 0.2 1.3 59.2 45.7 61.6
Max 60.4 58 38.7 47.8 - 0.2 1.4 60.7 53.2 62.8
Avg 54.8 41 31.4 43.0 - 0.2 1.3 54.9 - -
Min 49.9 29 22.2 39.3 - 0.1 1.2 50.1 45.7 54.8